RH
14 13 13 14 15 16 16 16 16 16 17 18 18 19 20 20 19 17 17 18 18 17 18 19 19 20 21 20 21 23 24 26 27 29 29 28 28 30 33 37 40 40 40 44 52 57 60 62 62 65 69 72 74 75 74 74 73 76 80 82 83 83 80 76 76 77 74 74 76 75 73 71 69 69 67 67 67 66 67 67 68 67 66 65 63 61
14 14 15 16 15 16 17 17 17 17 18 18 18 19 20 21 18 16 17 18 18 18 18 18 18 20 20 21 22 23 25 27 28 29 30 30 31 32 34 36 38 40 45 52 59 62 64 67 69 71 74 76 75 76 78 75 72 77 83 84 80 77 78 78 78 79 77 74 76 77 73 70 68 68 67 66 65 65 65 65 65 66 65 65 65 63
13 14 16 16 15 17 18 18 17 17 19 18 17 17 18 20 18 17 18 18 18 19 19 18 19 21 21 22 24 24 26 28 29 31 31 31 32 33 35 37 40 45 52 59 63 64 66 69 71 74 75 73 68 67 69 67 65 65 64 64 65 63 68 79 80 81 82 80 79 79 76 74 72 72 70 66 65 65 64 63 62 62 62 62 62 62
14 15 16 17 18 18 17 17 16 16 19 18 17 17 18 18 20 20 18 17 18 20 21 19 19 23 24 24 25 25 27 30 32 32 32 32 33 34 37 41 47 53 60 65 66 65 64 65 64 62 57 51 47 43 43 42 40 39 36 39 50 51 51 63 71 72 74 75 75 76 75 76 75 73 72 69 68 68 68 67 63 61 61 60 59 59
16 16 16 18 19 18 17 17 17 17 16 17 18 18 18 18 20 20 18 17 18 22 24 20 19 24 27 26 25 27 29 30 32 32 32 32 33 36 40 46 55 62 66 67 64 60 56 50 42 34 27 24 24 22 20 21 21 22 24 25 32 41 43 43 45 50 57 62 63 63 64 67 70 70 70 68 67 68 70 69 67 65 63 60 58 56
16 17 18 20 19 18 18 18 19 18 17 19 20 19 18 18 19 20 20 19 19 21 23 22 21 24 27 27 27 30 30 30 31 31 32 33 34 39 44 51 62 67 67 64 57 50 41 30 21 17 16 17 17 17 17 19 21 21 23 23 23 33 43 38 31 36 48 56 60 59 57 57 59 60 63 64 64 64 64 64 65 65 63 61 58 55
17 18 19 19 19 18 18 19 20 19 19 21 21 18 18 18 19 21 21 21 21 21 23 24 25 25 25 29 31 30 30 30 31 32 33 34 35 41 48 58 67 67 61 56 48 36 24 17 14 15 18 18 17 18 19 19 20 20 22 26 24 25 33 33 37 45 48 54 63 66 65 63 59 56 55 56 58 60 60 61 63 63 60 57 54 53
18 18 19 19 19 19 19 19 20 20 21 22 20 19 19 19 21 22 21 22 22 23 25 25 27 25 24 28 29 28 30 32 34 35 35 35 38 43 51 59 62 55 47 42 35 22 15 14 15 16 17 18 18 18 19 18 19 19 20 24 26 28 30 28 36 49 50 54 64 66 67 69 65 61 59 57 57 57 57 58 58 58 57 54 51 51
20 19 20 21 19 19 20 20 21 22 22 22 20 20 20 20 22 22 22 23 23 25 27 25 25 26 24 27 29 31 35 37 38 38 36 37 39 43 49 50 46 41 37 31 22 14 13 13 14 18 20 22 23 20 19 18 17 17 17 23 29 34 34 27 30 44 51 55 61 63 67 70 67 66 66 67 65 61 57 55 52 52 53 51 49 48
21 20 22 23 20 20 21 20 22 23 23 21 21 20 21 23 24 23 22 24 25 28 27 24 25 27 26 27 31 36 38 39 39 37 37 39 40 44 46 41 37 35 29 21 15 12 12 13 20 29 31 29 29 25 20 19 21 24 28 34 36 35 36 34 32 40 49 54 57 59 63 67 66 64 64 66 66 62 59 55 51 50 49 45 43 41
21 22 25 24 22 21 22 21 23 23 23 22 22 21 21 23 23 23 22 23 27 28 26 25 26 30 31 29 30 36 38 38 38 37 38 40 41 43 41 38 37 33 23 15 14 14 11 15 30 42 38 28 24 23 20 23 31 37 37 36 34 37 44 47 40 41 49 54 57 57 57 60 61 61 61 63 63 61 58 56 52 49 45 41 38 36
23 23 24 23 23 23 22 22 24 25 24 24 23 22 22 22 22 23 23 24 28 28 26 26 27 31 35 32 32 36 38 38 38 38 40 41 42 42 40 39 37 31 26 21 16 13 15 21 30 34 31 24 21 22 24 31 38 38 35 32 32 36 45 50 45 44 51 56 57 57 57 58 59 60 61 61 60 59 57 54 51 47 42 37 33 30
22 22 22 24 24 23 23 22 24 26 26 25 24 25 26 24 24 27 26 25 28 29 27 27 31 34 33 31 34 37 38 38 39 41 42 43 45 45 44 42 31 21 21 22 17 14 18 29 34 27 23 22 22 23 27 33 35 33 32 31 32 34 38 43 44 45 50 56 57 57 57 57 57 58 59 59 58 57 54 51 47 43 37 31 28 27
22 22 22 24 23 23 23 23 25 26 26 26 27 29 31 30 33 36 32 30 31 30 29 30 34 37 33 32 36 37 38 39 41 43 45 47 49 47 46 42 27 17 19 22 20 16 18 29 31 24 19 19 22 27 31 32 31 31 32 32 33 35 36 37 38 40 43 49 52 54 55 55 55 56 56 56 55 53 51 47 42 36 30 27 27 26
22 23 22 23 24 24 24 24 27 28 28 28 29 31 34 35 39 41 36 36 37 33 33 35 36 38 37 37 38 38 40 41 43 47 49 51 50 46 44 37 26 24 27 26 20 19 25 28 24 19 17 18 23 29 33 33 31 32 34 34 33 35 37 36 36 37 38 41 44 46 47 48 49 50 51 51 50 48 45 39 34 30 28 28 28 26
22 22 23 24 24 24 25 27 29 30 29 29 30 33 36 36 38 39 37 39 42 40 40 39 37 37 38 39 38 39 41 42 48 53 53 51 48 45 41 31 25 28 33 33 27 21 23 24 19 17 17 19 23 28 32 33 33 33 33 33 32 33 37 38 36 34 34 35 37 39 41 42 43 44 45 44 41 38 34 31 30 30 29 29 29 29
23 23 24 25 25 25 26 27 29 32 31 30 34 36 36 36 39 41 41 39 41 45 42 38 37 37 39 41 40 41 42 45 50 54 52 50 48 46 41 31 26 26 27 30 27 19 16 17 16 17 17 19 23 27 32 34 35 34 31 32 34 35 37 36 35 35 33 33 35 35 36 37 38 39 39 37 34 32 31 31 30 30 29 29 29 31
25 25 24 25 26 27 28 28 29 32 32 33 37 37 36 38 40 42 44 41 42 45 40 38 42 44 45 46 44 43 45 47 50 51 51 49 47 44 40 37 33 26 20 19 17 14 14 15 16 17 17 19 23 27 32 36 39 39 36 36 37 36 35 34 35 37 36 36 37 37 37 37 37 38 38 38 39 39 39 37 35 34 34 34 33 34
25 26 25 24 25 27 29 30 31 32 33 34 37 37 37 42 44 44 47 48 51 51 44 41 45 47 48 48 47 46 47 48 48 50 51 48 46 43 37 35 34 25 17 14 13 14 15 15 16 17 18 19 25 30 31 34 40 43 43 43 41 37 37 36 36 38 40 41 41 41 42 44 45 46 46 47 48 48 48 47 47 47 48 49 50 51
26 27 27 25 25 27 28 29 31 33 34 35 38 39 40 44 46 47 50 52 55 57 54 50 49 48 48 49 49 49 49 49 49 52 53 50 48 41 30 26 26 21 15 13 13 14 14 15 17 17 18 22 26 30 29 30 37 44 47 48 46 41 39 38 38 40 43 45 45 47 49 51 53 54 54 55 55 55 55 56 57 59 62 64 66 68
26 27 28 26 26 29 29 29 31 32 35 38 41 44 45 46 47 48 51 53 55 59 60 60 56 49 47 49 50 50 50 50 51 52 53 51 44 34 25 22 20 17 14 14 14 14 14 15 17 17 20 22 25 26 25 27 33 42 49 51 51 48 43 41 42 43 45 48 50 53 55 56 56 58 59 60 60 60 61 62 63 68 72 74 76 78
27 28 28 27 28 30 30 31 31 33 36 39 42 46 47 49 50 51 54 55 58 61 62 65 63 53 48 50 51 51 51 51 52 53 52 48 41 30 23 22 18 15 14 13 13 13 14 15 16 17 19 21 22 22 22 26 35 43 49 53 55 53 49 45 44 45 48 51 53 55 57 58 59 60 63 65 65 67 67 69 72 77 80 83 85 87
29 29 29 29 29 30 31 31 32 34 36 39 43 45 47 51 53 54 56 57 60 64 62 66 68 58 52 53 52 52 53 53 54 55 52 48 42 32 23 19 17 15 14 13 12 12 13 15 16 16 18 20 21 21 24 31 39 45 51 55 57 56 53 49 47 47 50 52 54 56 58 60 62 64 67 70 72 75 78 80 83 85 87 88 90 91
31 29 29 30 29 29 31 32 33 36 38 41 44 45 47 52 52 53 56 59 62 65 62 65 67 59 52 53 54 54 55 56 56 53 48 44 38 29 22 19 17 15 14 12 12 12 13 16 17 16 17 19 19 22 29 37 46 52 54 57 59 59 57 54 50 49 51 52 54 57 59 61 63 67 72 77 80 84 87 88 88 89 90 91 92 93
31 29 30 32 31 31 33 34 35 38 40 42 44 47 50 53 54 54 57 61 64 64 64 69 68 59 53 55 55 56 57 58 56 50 44 39 32 25 22 20 17 15 14 12 12 13 14 16 17 17 17 19 21 25 33 42 52 57 58 59 61 63 61 57 54 52 52 53 56 58 60 61 66 72 76 80 83 87 90 91 91 93 93 94 95 96
32 29 31 34 35 37 38 39 39 40 42 43 45 49 52 54 56 57 58 63 65 62 66 71 65 55 53 56 57 59 60 58 53 48 43 37 29 25 23 20 17 16 14 13 13 14 16 17 18 17 16 19 23 27 35 45 53 58 60 60 61 64 63 59 57 55 54 56 58 58 61 66 72 76 77 79 83 88 92 94 94 94 95 95 96 97
32 30 31 34 36 38 39 39 39 39 42 44 46 52 55 55 57 56 58 63 63 61 65 67 64 58 55 56 59 63 63 58 52 46 40 34 29 26 24 21 18 16 14 14 14 15 16 17 16 16 17 20 24 30 39 49 56 60 62 63 62 63 64 61 58 57 57 59 59 60 66 73 75 76 78 80 84 90 94 94 95 95 96 97 97 98
33 31 33 36 36 37 37 38 38 39 42 44 46 51 54 56 59 59 59 60 60 63 64 61 64 66 60 57 62 65 62 57 52 47 41 35 31 28 25 22 19 16 15 15 15 15 17 17 14 14 17 20 25 35 47 55 60 62 64 66 65 63 63 64 60 57 58 60 61 65 71 75 75 77 80 83 86 91 94 95 97 98 97 97 98 98
34 32 36 40 40 37 37 38 39 40 42 43 45 47 49 54 60 61 61 59 60 65 64 58 62 67 61 60 64 65 61 59 55 50 43 36 32 29 27 23 20 17 17 16 15 16 17 16 14 14 18 22 28 39 49 56 60 62 63 66 67 64 64 65 61 57 58 61 66 72 75 75 76 78 82 86 88 91 94 97 99 99 98 98 98 99
34 34 39 42 40 39 38 38 39 39 41 43 44 46 47 51 57 60 61 59 60 63 63 61 64 65 63 64 66 64 63 62 58 53 45 38 34 32 29 25 21 19 18 17 16 17 17 15 14 16 19 24 31 40 49 54 58 60 61 64 66 66 65 65 61 57 57 63 72 76 76 76 78 80 85 89 90 92 96 99 100 99 98 98 99 99
35 36 40 40 38 38 36 36 38 39 40 42 42 44 47 49 52 57 60 61 62 64 65 66 67 66 64 65 66 64 64 62 60 54 46 40 36 34 31 27 24 21 19 18 18 17 17 15 15 18 21 25 33 41 48 52 56 57 59 62 65 68 67 65 62 56 56 67 76 77 76 77 80 83 87 90 91 94 98 99 98 98 97 97 98 98
35 35 37 38 38 37 34 35 38 38 39 43 45 46 48 49 51 55 58 61 62 64 66 69 70 67 64 63 64 64 64 63 60 54 48 43 41 37 33 30 26 23 21 20 19 18 17 16 17 19 23 26 34 43 49 52 54 55 58 61 66 69 69 67 63 57 60 72 79 76 75 79 83 87 90 92 92 95 99 99 98 98 97 96 96 96
38 36 35 37 39 36 35 35 37 39 42 45 46 47 46 46 49 51 55 58 59 62 66 69 69 65 63 63 64 64 65 63 60 55 49 46 44 40 36 33 28 25 23 22 20 19 18 18 18 21 23 27 36 45 50 52 52 53 57 61 67 70 68 67 64 58 64 77 79 75 75 80 85 89 90 90 92 94 98 99 98 98 97 97 97 96
42 39 36 38 39 37 36 36 38 42 45 43 42 42 43 45 46 49 54 58 59 62 64 65 65 63 64 66 66 66 67 65 61 57 53 51 47 43 39 35 31 27 25 23 21 20 20 19 19 21 24 28 37 47 50 51 52 55 58 61 66 69 67 66 63 60 68 79 77 73 75 80 86 89 89 89 91 94 98 98 97 97 97 96 94 93
42 39 38 39 40 38 36 38 43 46 44 41 40 39 41 43 44 46 52 56 57 59 60 61 63 63 65 68 68 69 69 67 62 58 56 52 49 45 43 39 34 31 28 25 23 22 21 21 20 21 23 29 38 45 48 50 53 57 59 61 65 68 67 66 63 62 72 79 74 71 75 79 85 88 88 89 91 94 97 97 96 96 94 92 91 90
39 39 39 39 40 39 38 41 46 44 39 38 40 39 41 44 44 45 50 52 53 55 57 58 61 62 64 67 69 69 70 69 64 59 55 52 49 48 47 42 37 35 30 26 25 24 22 20 20 20 22 29 38 43 47 51 54 57 59 60 63 66 66 63 61 63 73 77 71 70 75 79 84 87 87 89 91 92 94 93 91 90 87 87 87 87
38 38 40 40 40 40 40 41 41 40 38 39 40 40 42 44 44 46 50 50 51 54 55 56 58 60 63 67 69 69 70 71 66 58 53 52 49 50 50 46 41 38 32 28 26 24 22 20 18 17 20 28 38 42 47 52 55 57 58 58 62 65 63 61 59 63 72 73 68 70 75 79 83 86 86 87 86 86 86 85 83 83 83 84 84 84
39 38 40 43 42 40 41 41 41 42 42 40 40 40 43 45 45 47 51 51 50 52 55 55 57 60 62 65 68 69 69 71 68 59 54 53 51 51 52 50 46 41 35 30 27 24 21 20 17 16 19 29 38 43 48 52 54 55 55 56 61 63 60 58 58 62 70 70 67 70 74 77 82 84 82 81 78 78 79 79 79 80 81 83 85 87
40 39 41 45 44 41 42 43 44 46 44 40 40 42 45 47 47 49 53 52 49 51 55 56 58 60 62 65 68 68 68 68 67 61 56 55 53 52 53 52 49 44 37 32 28 24 22 20 18 16 19 28 38 44 48 51 52 53 52 54 59 60 58 57 56 61 67 67 64 68 72 75 78 77 75 74 74 74 75 76 78 80 83 86 89 91
41 41 42 45 44 41 43 44 44 44 42 40 42 44 46 48 49 53 56 53 50 53 56 57 59 61 63 65 67 69 69 68 66 63 61 57 54 53 53 53 51 47 41 35 29 25 22 21 19 18 20 27 37 45 48 49 51 51 49 52 57 58 56 54 53 58 64 63 62 65 69 71 71 70 71 73 73 72 73 76 79 81 85 89 91 92
43 42 42 44 43 42 44 45 44 42 40 40 43 46 48 49 51 53 54 52 51 54 56 58 60 62 64 66 67 69 70 69 68 66 63 60 56 54 53 53 52 49 44 39 32 26 23 22 20 20 20 24 37 46 47 48 51 48 46 50 55 56 54 51 50 56 60 60 60 63 64 65 66 68 71 73 72 71 72 75 78 81 86 90 91 91
42 42 42 43 42 41 42 45 45 42 39 41 45 47 48 50 50 49 49 50 52 53 55 58 61 62 65 67 67 69 70 70 70 68 64 61 58 56 55 53 51 50 48 43 36 29 25 23 21 20 18 21 35 46 46 47 50 46 44 49 53 53 51 48 48 53 57 57 58 60 60 61 64 68 70 71 71 71 71 73 77 82 86 89 90 90
40 41 41 41 41 41 42 46 48 44 41 42 46 47 48 48 46 46 47 48 51 53 54 57 59 62 65 67 67 68 69 70 70 68 65 62 59 57 56 54 52 51 49 47 41 33 27 24 22 21 19 18 30 42 44 46 49 45 43 47 50 49 49 46 46 51 54 54 56 56 56 59 64 67 68 69 70 70 70 71 76 81 84 87 89 88
41 41 40 39 40 42 44 45 44 42 42 43 44 44 45 45 43 44 46 48 50 52 54 57 59 62 65 67 67 67 68 68 68 68 67 64 60 58 57 55 53 52 51 49 45 38 31 26 22 22 21 19 26 38 43 46 48 46 42 44 47 47 46 44 45 48 50 51 53 53 54 58 62 64 65 66 67 68 68 69 73 78 81 84 88 88
40 39 38 39 40 42 43 41 39 41 44 43 41 41 43 44 43 44 46 48 49 51 54 56 59 61 64 67 67 66 65 65 65 67 68 67 62 59 57 55 54 53 51 51 49 43 36 30 24 23 22 21 25 36 43 45 47 46 42 42 44 45 44 43 44 46 47 48 49 50 52 55 59 60 61 62 64 65 66 68 71 76 79 82 86 88
38 37 37 38 39 39 38 37 37 41 42 41 40 39 41 43 43 44 45 46 48 50 53 56 57 60 63 66 66 64 64 64 63 66 68 69 66 61 58 56 55 54 52 52 51 47 41 34 27 24 23 23 26 35 41 44 46 46 42 40 41 43 43 43 44 44 45 45 46 47 50 53 56 58 59 60 62 63 65 67 71 74 77 81 84 86
37 37 37 37 38 38 35 33 36 39 38 36 37 38 39 41 41 41 42 43 44 47 51 54 55 57 62 65 64 64 64 63 63 64 67 69 68 65 60 57 56 54 53 53 52 50 46 40 32 26 24 24 27 33 39 43 45 45 42 40 39 41 42 43 43 43 44 44 45 47 50 53 55 57 58 59 61 62 64 67 71 73 75 78 81 83
36 37 37 36 37 37 33 32 36 37 34 32 34 35 36 36 36 36 37 39 40 44 48 50 52 56 61 64 64 64 64 64 63 65 67 68 69 67 64 61 58 56 54 53 53 52 49 44 37 30 26 25 28 33 38 41 44 45 43 41 39 39 41 42 42 43 44 44 45 46 49 52 55 56 57 58 60 62 64 66 68 70 71 74 77 79
36 38 38 36 36 35 33 33 36 35 30 28 29 29 30 31 31 32 34 35 37 40 43 46 50 55 61 64 63 63 65 64 63 65 67 67 69 69 67 64 61 58 55 53 53 53 50 47 42 35 28 26 29 33 36 39 42 44 44 43 40 39 40 41 41 42 44 44 45 46 47 50 53 55 56 57 59 61 64 65 66 66 68 71 73 74
38 39 39 38 38 36 33 34 37 34 29 25 26 26 26 27 28 30 31 32 35 38 41 44 49 55 61 64 63 63 64 63 63 66 67 68 69 70 69 68 65 61 57 54 54 53 52 49 45 40 33 28 30 35 37 38 40 42 44 44 42 40 40 41 40 41 43 44 45 46 47 49 51 53 55 56 57 60 63 65 66 66 67 68 69 70
39 39 38 38 38 34 31 31 33 31 28 25 26 26 25 26 28 29 30 31 34 37 41 44 49 54 59 60 61 63 64 63 62 65 67 68 70 70 70 70 69 65 60 56 55 54 53 51 48 43 37 31 30 35 38 38 38 40 42 44 44 42 41 41 42 41 42 43 45 46 47 48 50 52 53 54 56 58 60 62 64 66 66 66 65 65